Radiation Dose measured at exhaust stack monitor of Fukushima Daiichi Nuclear Power Station
Date,Time,Unit 5 6 shared exhaust cylinders,Wind Direction,Wind Velocity(m/s)
2023/04/07,00:00,3.6,south,9.0
2023/04/07,00:10,3.8,south-southeast,8.6
2023/04/07,00:20,3.7,south,7.9
2023/04/07,00:30,3.7,south,7.9
2023/04/07,00:40,3.8,south-southeast,7.2
2023/04/07,00:50,3.7,south-southeast,6.9
2023/04/07,01:00,3.7,south-southeast,8.3
2023/04/07,01:10,3.8,south-southeast,8.9
2023/04/07,01:20,3.6,south,7.9
2023/04/07,01:30,3.7,south,7.7
2023/04/07,01:40,3.6,south,7.8
2023/04/07,01:50,3.5,south,7.8
2023/04/07,02:00,3.8,south,7.5
2023/04/07,02:10,3.7,south,6.8
2023/04/07,02:20,3.6,south-southeast,6.5
2023/04/07,02:30,3.8,south-southeast,8.0
2023/04/07,02:40,3.5,south-southeast,6.7
2023/04/07,02:50,3.7,south,8.7
2023/04/07,03:00,3.7,south,10.2
2023/04/07,03:10,3.7,south,11.3
2023/04/07,03:20,3.9,south-southeast,11.6
2023/04/07,03:30,3.7,south,9.3
2023/04/07,03:40,3.6,south,9.1
2023/04/07,03:50,3.7,south-southeast,9.9
2023/04/07,04:00,3.7,south,8.6
2023/04/07,04:10,3.8,south-southeast,7.8
2023/04/07,04:20,3.7,south,8.9
2023/04/07,04:30,3.5,south,9.1
2023/04/07,04:40,3.8,south,9.4
2023/04/07,04:50,3.7,south,9.4
2023/04/07,05:00,3.7,south,10.5
2023/04/07,05:10,3.7,south,10.5
2023/04/07,05:20,3.6,south,11.9
2023/04/07,05:30,3.8,south,12.0
2023/04/07,05:40,3.8,south,10.7
2023/04/07,05:50,3.7,south,10.9
2023/04/07,06:00,3.6,south-southeast,11.6
2023/04/07,06:10,3.7,south-southeast,11.7
2023/04/07,06:20,3.6,south-southeast,12.7
2023/04/07,06:30,3.7,south-southeast,10.2
2023/04/07,06:40,3.7,south-southeast,10.2
2023/04/07,06:50,3.7,south-southeast,11.7
2023/04/07,07:00,3.6,south-southeast,13.8
2023/04/07,07:10,3.7,south-southeast,12.2
2023/04/07,07:20,3.6,south-southeast,11.3
2023/04/07,07:30,3.6,south-southeast,13.5
2023/04/07,07:40,3.6,south-southeast,12.2
2023/04/07,07:50,3.6,south-southeast,11.6
2023/04/07,08:00,3.9,south-southeast,11.7
2023/04/07,08:10,3.7,south,8.9
2023/04/07,08:20,3.6,south,10.7
2023/04/07,08:30,3.6,south,10.2
2023/04/07,08:40,3.8,south,10.5
2023/04/07,08:50,3.9,south,9.9
2023/04/07,09:00,3.6,south,10.5
2023/04/07,09:10,3.7,south,9.9
2023/04/07,09:20,3.6,south,11.3
2023/04/07,09:30,3.6,south-southwest,8.4
2023/04/07,09:40,3.7,south,10.5
2023/04/07,09:50,3.6,south,13.0
2023/04/07,10:00,3.6,south,13.3
2023/04/07,10:10,3.6,south,10.2
2023/04/07,10:20,3.7,south,13.1
2023/04/07,10:30,3.8,south,11.8
2023/04/07,10:40,3.5,south,13.6
2023/04/07,10:50,3.8,south,13.8
2023/04/07,11:00,3.6,south-southeast,12.4
2023/04/07,11:10,3.9,south,10.5
2023/04/07,11:20,3.6,south,12.8
2023/04/07,11:30,3.8,south,11.1
2023/04/07,11:40,3.8,south,13.0
2023/04/07,11:50,3.5,south,10.2
2023/04/07,12:00,3.6,south,11.6
2023/04/07,12:10,3.6,south,12.8
2023/04/07,12:20,3.7,south,10.5
2023/04/07,12:30,3.7,south-southeast,12.5
2023/04/07,12:40,3.7,south,12.4
2023/04/07,12:50,3.7,south-southeast,13.8
2023/04/07,13:00,3.7,south,15.2
2023/04/07,13:10,3.6,south,14.1
2023/04/07,13:20,3.7,south-southeast,15.5
2023/04/07,13:30,3.7,south,12.8
2023/04/07,13:40,3.9,south,14.7
2023/04/07,13:50,3.6,south-southeast,16.1
2023/04/07,14:00,3.7,south,15.2
2023/04/07,14:10,3.6,south,16.0
2023/04/07,14:20,3.6,south,15.0
2023/04/07,14:30,3.6,south-southeast,15.0
2023/04/07,14:40,3.7,south,14.9
2023/04/07,14:50,3.6,south-southeast,14.4
2023/04/07,15:00,3.7,south-southeast,14.4
2023/04/07,15:10,3.7,south-southeast,13.5
2023/04/07,15:20,3.7,south-southeast,13.8
2023/04/07,15:30,3.7,south-southeast,13.1
2023/04/07,15:40,3.5,south-southeast,10.8
2023/04/07,15:50,3.7,south-southeast,9.4
2023/04/07,16:00,3.7,south-southeast,10.2
2023/04/07,16:10,3.8,south,9.3
2023/04/07,16:20,3.7,south,7.7
2023/04/07,16:30,3.8,south,7.7
2023/04/07,16:40,3.8,south-southeast,8.8
2023/04/07,16:50,3.6,south-southeast,11.6
2023/04/07,17:00,3.7,south,14.1
2023/04/07,17:10,3.7,south-southeast,13.0
2023/04/07,17:20,3.7,south,13.5
2023/04/07,17:30,3.8,south,13.5
2023/04/07,17:40,3.6,south,11.7
2023/04/07,17:50,3.8,south,13.0
2023/04/07,18:00,3.7,south,13.3
2023/04/07,18:10,3.8,south,12.7
2023/04/07,18:20,3.7,south,14.1
2023/04/07,18:30,3.7,south,13.6
2023/04/07,18:40,3.7,south,14.6
2023/04/07,18:50,3.8,south,13.3
2023/04/07,19:00,3.8,south,11.0
2023/04/07,19:10,3.6,south,10.6
2023/04/07,19:20,3.8,south-southeast,12.0
2023/04/07,19:30,3.7,south,10.9
2023/04/07,19:40,3.6,south,12.4
2023/04/07,19:50,3.7,south,8.5
2023/04/07,20:00,3.7,south,8.7
2023/04/07,20:10,3.7,south,10.7
2023/04/07,20:20,3.7,south,9.5
2023/04/07,20:30,3.6,south,10.0
2023/04/07,20:40,3.7,south,9.0
2023/04/07,20:50,3.7,south,7.5
2023/04/07,21:00,3.7,south,9.2
2023/04/07,21:10,3.8,south,10.2
2023/04/07,21:20,3.8,south,12.4
2023/04/07,21:30,3.6,south,12.4
2023/04/07,21:40,3.7,south,11.4
2023/04/07,21:50,3.6,south,10.9
2023/04/07,22:00,3.6,south,9.7
2023/04/07,22:10,3.6,south,9.9
2023/04/07,22:20,3.6,south,5.8
2023/04/07,22:30,3.7,west,3.7
2023/04/07,22:40,3.6,west,6.5
2023/04/07,22:50,3.6,west,7.9
2023/04/07,23:00,3.7,west,5.9
2023/04/07,23:10,3.6,west,6.4
2023/04/07,23:20,3.7,west-northwest,4.5
2023/04/07,23:30,3.6,north-northwest,4.5
2023/04/07,23:40,3.6,west-northwest,3.2
2023/04/07,23:50,3.7,northwest,4.2
